User: anonymous   Login
Location: Unspecified
(0.0000°N, 0.0000°E)
Time: 01:56:28
(UTC+00:00)
Language:

STARLINK-32232 - Orbit

View from above orbital plane
View from above orbital plane
View from above satellite
View from above satellite

Ground track
Ground track

The orbit is defined by the following mean orbital elements,

1 60431U          26145.61248910 +.00000000 +00000-0 +15314-4 0 00004
2 60431  53.1597 220.0310 0001313  87.4537 272.6614 15.30192889    00
Epoch (UTC): 25 May 2026 14:41:59
Eccentricity: 0.0001313
inclination: 53.1597°
perigee height: 474 km
apogee height: 476 km
right ascension of ascending node: 220.0310°
argument of perigee: 87.4537°
revolutions per day: 15.30192889
mean anomaly at epoch: 272.6614°

The dashed part of the orbit path shows where the satellite is in the earth's shadow,  

DLR